Time,TemperatureF,DewpointF,PressureIn,WindDirection,WindDirectionDegrees,WindSpeedMPH,WindSpeedGustMPH,Humidity,HourlyPrecipIn,Conditions,Clouds,dailyrainin,SoftwareType,DateUTC
2013-07-09 00:01:00,68.7,66.0,30.04,WSW,240,0.0,1.0,92,0.00,,,0.00,weatherlink.com 1.10,2013-07-09 04:01:00,
2013-07-09 00:16:00,68.4,66.0,30.04,SSW,192,0.0,0.0,92,0.00,,,0.00,weatherlink.com 1.10,2013-07-09 04:16:00,
2013-07-09 00:31:00,68.5,67.0,30.04,SSW,192,0.0,0.0,93,0.00,,,0.00,weatherlink.com 1.10,2013-07-09 04:31:00,
2013-07-09 00:46:00,68.3,66.0,30.03,NNW,342,0.0,1.0,92,0.00,,,0.00,weatherlink.com 1.10,2013-07-09 04:46:00,
2013-07-09 01:02:00,67.6,65.0,30.03,WNW,298,0.0,2.0,92,0.00,,,0.00,weatherlink.com 1.10,2013-07-09 05:02:00,
2013-07-09 01:17:00,66.8,64.0,30.04,NW,312,0.0,3.0,91,0.00,,,0.00,weatherlink.com 1.10,2013-07-09 05:17:00,
2013-07-09 01:32:00,66.2,64.0,30.04,NNW,343,0.0,2.0,91,0.00,,,0.00,weatherlink.com 1.10,2013-07-09 05:32:00,
2013-07-09 01:47:00,66.0,64.0,30.04,NNE,16,0.0,2.0,92,0.00,,,0.00,weatherlink.com 1.10,2013-07-09 05:47:00,
2013-07-09 02:02:00,66.0,64.0,30.03,NNW,341,1.0,1.0,92,0.00,,,0.00,weatherlink.com 1.10,2013-07-09 06:02:00,
2013-07-09 02:17:00,66.1,64.0,30.03,NNW,340,0.0,1.0,92,0.00,,,0.00,weatherlink.com 1.10,2013-07-09 06:17:00,
2013-07-09 02:32:00,66.2,64.0,30.03,NNW,340,0.0,0.0,92,0.00,,,0.00,weatherlink.com 1.10,2013-07-09 06:32:00,
2013-07-09 02:47:00,66.3,64.0,30.03,NNW,340,0.0,1.0,92,0.00,,,0.00,weatherlink.com 1.10,2013-07-09 06:47:00,
2013-07-09 03:02:00,66.4,64.0,30.03,NNW,340,0.0,1.0,92,0.00,,,0.00,weatherlink.com 1.10,2013-07-09 07:02:00,
2013-07-09 03:17:00,66.4,64.0,30.03,NNE,13,0.0,1.0,92,0.00,,,0.00,weatherlink.com 1.10,2013-07-09 07:17:00,
2013-07-09 03:32:00,66.2,64.0,30.03,NNE,19,0.0,1.0,92,0.00,,,0.00,weatherlink.com 1.10,2013-07-09 07:32:00,
2013-07-09 03:47:00,65.8,64.0,30.03,North,11,0.0,1.0,93,0.00,,,0.00,weatherlink.com 1.10,2013-07-09 07:47:00,
2013-07-09 04:02:00,65.9,64.0,30.04,North,5,0.0,3.0,93,0.00,,,0.00,weatherlink.com 1.10,2013-07-09 08:02:00,
2013-07-09 04:17:00,65.8,64.0,30.04,NNW,341,0.0,2.0,93,0.00,,,0.00,weatherlink.com 1.10,2013-07-09 08:17:00,
2013-07-09 04:32:00,65.7,64.0,30.04,NNW,343,0.0,1.0,93,0.00,,,0.00,weatherlink.com 1.10,2013-07-09 08:32:00,
2013-07-09 04:47:00,65.5,64.0,30.05,NNW,343,0.0,1.0,93,0.00,,,0.00,weatherlink.com 1.10,2013-07-09 08:47:00,
2013-07-09 05:02:00,65.4,64.0,30.05,NNW,343,0.0,0.0,94,0.00,,,0.00,weatherlink.com 1.10,2013-07-09 09:02:00,
2013-07-09 05:17:00,65.4,64.0,30.05,NNW,343,0.0,1.0,94,0.00,,,0.00,weatherlink.com 1.10,2013-07-09 09:17:00,
2013-07-09 05:32:00,65.4,64.0,30.05,NNE,26,0.0,1.0,94,0.00,,,0.00,weatherlink.com 1.10,2013-07-09 09:32:00,
2013-07-09 05:47:00,65.3,64.0,30.05,NNE,21,0.0,1.0,94,0.00,,,0.00,weatherlink.com 1.10,2013-07-09 09:47:00,
2013-07-09 06:02:00,65.4,64.0,30.06,NNW,340,0.0,2.0,95,0.00,,,0.00,weatherlink.com 1.10,2013-07-09 10:02:00,
2013-07-09 06:17:00,65.3,64.0,30.07,NNW,345,0.0,1.0,94,0.00,,,0.00,weatherlink.com 1.10,2013-07-09 10:17:00,
2013-07-09 06:32:00,65.2,64.0,30.07,West,273,0.0,1.0,95,0.00,,,0.00,weatherlink.com 1.10,2013-07-09 10:32:00,
2013-07-09 06:47:00,65.4,64.0,30.07,NW,315,0.0,0.0,95,0.01,,,0.01,weatherlink.com 1.10,2013-07-09 10:47:00,
2013-07-09 07:02:00,65.7,64.0,30.07,NW,308,0.0,1.0,95,0.01,,,0.01,weatherlink.com 1.10,2013-07-09 11:02:00,
2013-07-09 07:17:00,66.0,65.0,30.07,SE,134,0.0,1.0,95,0.01,,,0.01,weatherlink.com 1.10,2013-07-09 11:17:00,
2013-07-09 07:32:00,66.3,65.0,30.08,NNW,330,0.0,1.0,94,0.01,,,0.01,weatherlink.com 1.10,2013-07-09 11:32:00,
2013-07-09 07:47:00,66.3,65.0,30.08,NNW,337,0.0,1.0,94,0.00,,,0.01,weatherlink.com 1.10,2013-07-09 11:47:00,
2013-07-09 08:02:00,66.9,65.0,30.08,NNW,337,0.0,1.0,94,0.00,,,0.01,weatherlink.com 1.10,2013-07-09 12:02:00,
2013-07-09 08:17:00,67.1,65.0,30.08,WNW,298,0.0,1.0,92,0.00,,,0.01,weatherlink.com 1.10,2013-07-09 12:17:00,
2013-07-09 08:32:00,67.0,65.0,30.09,NNW,342,0.0,1.0,92,0.00,,,0.01,weatherlink.com 1.10,2013-07-09 12:32:00,
2013-07-09 08:47:00,66.8,65.0,30.09,NNE,23,0.0,1.0,92,0.00,,,0.01,weatherlink.com 1.10,2013-07-09 12:47:00,
2013-07-09 09:02:00,67.1,65.0,30.09,North,5,0.0,1.0,92,0.00,,,0.01,weatherlink.com 1.10,2013-07-09 13:02:00,
2013-07-09 09:17:00,67.6,65.0,30.08,ESE,117,0.0,1.0,91,0.00,,,0.01,weatherlink.com 1.10,2013-07-09 13:17:00,
2013-07-09 09:32:00,68.6,65.0,30.08,ESE,102,0.0,1.0,89,0.00,,,0.01,weatherlink.com 1.10,2013-07-09 13:32:00,
2013-07-09 09:47:00,69.8,66.0,30.08,NNW,343,0.0,1.0,87,0.00,,,0.01,weatherlink.com 1.10,2013-07-09 13:47:00,
2013-07-09 10:02:00,70.5,66.0,30.08,ESE,116,1.0,1.0,85,0.00,,,0.01,weatherlink.com 1.10,2013-07-09 14:02:00,
2013-07-09 10:17:00,70.4,66.0,30.08,NNW,340,0.0,1.0,85,0.00,,,0.01,weatherlink.com 1.10,2013-07-09 14:17:00,
2013-07-09 10:32:00,70.5,66.0,30.08,ESE,111,0.0,3.0,86,0.00,,,0.01,weatherlink.com 1.10,2013-07-09 14:32:00,
2013-07-09 10:47:00,70.8,67.0,30.08,East,92,0.0,2.0,86,0.00,,,0.01,weatherlink.com 1.10,2013-07-09 14:47:00,
2013-07-09 11:02:00,71.0,66.0,30.08,NNW,339,1.0,2.0,85,0.00,,,0.01,weatherlink.com 1.10,2013-07-09 15:02:00,
2013-07-09 11:17:00,71.1,66.0,30.08,ESE,104,0.0,1.0,85,0.00,,,0.01,weatherlink.com 1.10,2013-07-09 15:17:00,
2013-07-09 11:32:00,71.4,66.0,30.09,North,11,0.0,2.0,84,0.00,,,0.01,weatherlink.com 1.10,2013-07-09 15:32:00,
2013-07-09 11:47:00,71.5,67.0,30.08,ENE,75,0.0,2.0,85,0.00,,,0.01,weatherlink.com 1.10,2013-07-09 15:47:00,
2013-07-09 12:02:00,72.3,67.0,30.09,NNW,331,0.0,1.0,84,0.00,,,0.01,weatherlink.com 1.10,2013-07-09 16:02:00,
2013-07-09 12:17:00,71.9,67.0,30.09,North,350,0.0,1.0,84,0.00,,,0.01,weatherlink.com 1.10,2013-07-09 16:17:00,
2013-07-09 12:32:00,71.9,67.0,30.08,ESE,103,0.0,2.0,84,0.00,,,0.01,weatherlink.com 1.10,2013-07-09 16:32:00,
2013-07-09 12:47:00,72.1,67.0,30.08,ESE,117,0.0,3.0,84,0.00,,,0.01,weatherlink.com 1.10,2013-07-09 16:47:00,
2013-07-09 13:02:00,72.6,67.0,30.08,ESE,116,1.0,2.0,83,0.00,,,0.01,weatherlink.com 1.10,2013-07-09 17:02:00,
2013-07-09 13:18:00,73.5,68.0,30.08,East,80,0.0,1.0,82,0.00,,,0.01,weatherlink.com 1.10,2013-07-09 17:18:00,
2013-07-09 13:33:00,73.8,67.0,30.08,SE,143,0.0,1.0,79,0.00,,,0.01,weatherlink.com 1.10,2013-07-09 17:33:00,
2013-07-09 13:48:00,73.1,67.0,30.07,WNW,286,1.0,2.0,82,0.00,,,0.01,weatherlink.com 1.10,2013-07-09 17:48:00,
2013-07-09 14:03:00,73.4,68.0,30.07,NW,321,1.0,1.0,82,0.00,,,0.01,weatherlink.com 1.10,2013-07-09 18:03:00,
2013-07-09 14:18:00,73.9,67.0,30.07,NNE,16,1.0,3.0,80,0.00,,,0.01,weatherlink.com 1.10,2013-07-09 18:18:00,
2013-07-09 14:33:00,74.2,68.0,30.07,East,96,0.0,3.0,80,0.00,,,0.01,weatherlink.com 1.10,2013-07-09 18:33:00,
2013-07-09 14:48:00,74.3,68.0,30.07,NW,306,0.0,2.0,80,0.00,,,0.01,weatherlink.com 1.10,2013-07-09 18:48:00,
2013-07-09 15:03:00,74.2,68.0,30.06,SE,138,0.0,1.0,80,0.00,,,0.01,weatherlink.com 1.10,2013-07-09 19:03:00,
2013-07-09 15:18:00,74.4,68.0,30.06,SE,146,0.0,3.0,80,0.00,,,0.01,weatherlink.com 1.10,2013-07-09 19:18:00,
2013-07-09 15:33:00,74.5,68.0,30.06,SE,130,0.0,3.0,79,0.00,,,0.01,weatherlink.com 1.10,2013-07-09 19:33:00,
2013-07-09 15:48:00,74.0,68.0,30.07,SE,127,1.0,5.0,80,0.00,,,0.01,weatherlink.com 1.10,2013-07-09 19:48:00,
2013-07-09 16:03:00,73.1,67.0,30.07,ESE,121,2.0,4.0,81,0.00,,,0.01,weatherlink.com 1.10,2013-07-09 20:03:00,
2013-07-09 16:18:00,72.9,67.0,30.07,South,191,2.0,3.0,82,0.00,,,0.01,weatherlink.com 1.10,2013-07-09 20:18:00,
2013-07-09 16:33:00,73.4,67.0,30.06,NNW,348,4.0,4.0,81,0.00,,,0.01,weatherlink.com 1.10,2013-07-09 20:33:00,
2013-07-09 16:48:00,73.5,67.0,30.06,NE,46,2.0,3.0,80,0.00,,,0.01,weatherlink.com 1.10,2013-07-09 20:48:00,
2013-07-09 17:03:00,72.8,67.0,30.06,ESE,109,0.0,3.0,81,0.00,,,0.01,weatherlink.com 1.10,2013-07-09 21:03:00,
2013-07-09 17:18:00,72.8,67.0,30.05,East,87,0.0,2.0,81,0.00,,,0.01,weatherlink.com 1.10,2013-07-09 21:18:00,
2013-07-09 17:33:00,73.0,67.0,30.04,NE,36,0.0,3.0,80,0.00,,,0.01,weatherlink.com 1.10,2013-07-09 21:33:00,
2013-07-09 17:48:00,73.5,67.0,30.04,ESE,123,0.0,2.0,79,0.00,,,0.01,weatherlink.com 1.10,2013-07-09 21:48:00,
2013-07-09 18:03:00,72.9,66.0,30.05,SE,146,0.0,2.0,80,0.00,,,0.01,weatherlink.com 1.10,2013-07-09 22:03:00,
2013-07-09 18:18:00,73.0,66.0,30.04,NNE,30,1.0,3.0,79,0.00,,,0.01,weatherlink.com 1.10,2013-07-09 22:18:00,
2013-07-09 18:33:00,72.4,66.0,30.04,WNW,289,0.0,3.0,80,0.00,,,0.01,weatherlink.com 1.10,2013-07-09 22:33:00,
2013-07-09 18:48:00,71.6,66.0,30.05,NE,41,0.0,4.0,81,0.00,,,0.01,weatherlink.com 1.10,2013-07-09 22:48:00,
2013-07-09 19:03:00,71.3,66.0,30.05,SSW,200,0.0,2.0,82,0.00,,,0.01,weatherlink.com 1.10,2013-07-09 23:03:00,
2013-07-09 19:18:00,70.9,65.0,30.04,NNW,341,1.0,3.0,82,0.00,,,0.01,weatherlink.com 1.10,2013-07-09 23:18:00,
2013-07-09 19:33:00,70.8,65.0,30.03,SE,134,1.0,3.0,83,0.00,,,0.01,weatherlink.com 1.10,2013-07-09 23:33:00,
2013-07-09 19:48:00,70.4,65.0,30.04,NNE,26,0.0,3.0,83,0.00,,,0.01,weatherlink.com 1.10,2013-07-09 23:48:00,
2013-07-09 20:03:00,70.4,65.0,30.05,SE,127,0.0,2.0,83,0.00,,,0.01,weatherlink.com 1.10,2013-07-10 00:03:00,
2013-07-09 20:18:00,70.5,65.0,30.05,NNE,17,0.0,2.0,83,0.00,,,0.01,weatherlink.com 1.10,2013-07-10 00:18:00,
2013-07-09 20:33:00,70.5,65.0,30.05,NNE,25,0.0,1.0,83,0.00,,,0.01,weatherlink.com 1.10,2013-07-10 00:33:00,
2013-07-09 20:48:00,70.4,65.0,30.05,North,350,0.0,2.0,83,0.00,,,0.01,weatherlink.com 1.10,2013-07-10 00:48:00,
2013-07-09 21:03:00,70.3,65.0,30.06,ESE,123,0.0,1.0,83,0.00,,,0.01,weatherlink.com 1.10,2013-07-10 01:03:00,
2013-07-09 21:33:00,69.9,65.0,30.05,ESE,105,1.0,2.0,84,0.00,,,0.01,weatherlink.com 1.10,2013-07-10 01:33:00,
2013-07-09 21:48:00,69.4,64.0,30.06,SE,125,0.0,4.0,84,0.00,,,0.01,weatherlink.com 1.10,2013-07-10 01:48:00,
2013-07-09 22:03:00,69.3,64.0,30.06,SSE,150,1.0,3.0,84,0.00,,,0.01,weatherlink.com 1.10,2013-07-10 02:03:00,
2013-07-09 22:18:00,69.0,64.0,30.06,ESE,118,0.0,3.0,84,0.00,,,0.01,weatherlink.com 1.10,2013-07-10 02:18:00,
2013-07-09 22:33:00,69.0,64.0,30.06,North,5,0.0,1.0,84,0.00,,,0.01,weatherlink.com 1.10,2013-07-10 02:33:00,
2013-07-09 22:48:00,69.0,64.0,30.06,SE,134,0.0,1.0,84,0.00,,,0.01,weatherlink.com 1.10,2013-07-10 02:48:00,
2013-07-09 23:03:00,69.0,64.0,30.06,NNE,17,1.0,1.0,84,0.00,,,0.01,weatherlink.com 1.10,2013-07-10 03:03:00,
2013-07-09 23:18:00,69.1,64.0,30.06,SE,127,0.0,1.0,84,0.00,,,0.01,weatherlink.com 1.10,2013-07-10 03:18:00,
2013-07-09 23:33:00,69.2,65.0,30.05,SE,138,1.0,2.0,85,0.00,,,0.01,weatherlink.com 1.10,2013-07-10 03:33:00,
2013-07-09 23:48:00,69.2,65.0,30.05,SE,125,0.0,1.0,85,0.00,,,0.01,weatherlink.com 1.10,2013-07-10 03:48:00,